Weather reports worldwide

Advertisment
St. Mary's, United Kingdom (3803): temperature & dewpoint: 21.04.2017 04:00:00 - 27.04.2017 04:00:00 (BST)St. Mary's, United Kingdom (3803): temperature -20cm: 21.04.2017 04:00:00 - 27.04.2017 04:00:00 (BST)St. Mary's, United Kingdom (3803): wind speed & gusts: 21.04.2017 04:00:00 - 27.04.2017 04:00:00 (BST)St. Mary's, United Kingdom (3803): wind direction: 21.04.2017 04:00:00 - 27.04.2017 04:00:00 (BST)St. Mary's, United Kingdom (3803): reduced air pressure: 21.04.2017 04:00:00 - 27.04.2017 04:00:00 (BST)St. Mary's, United Kingdom (3803): visibility: 21.04.2017 04:00:00 - 27.04.2017 04:00:00 (BST)St. Mary's, United Kingdom (3803): precipitation: 21.04.2017 04:00:00 - 27.04.2017 04:00:00 (BST)
Date & Time tt [°C] td [°C] tt -20cm [°C] ff [km/h] ff [kn] fx [km/h] fx [kn] dd ppp [hPa] vv [km] rr [mm]
27.04.2017 04:00:00 6,6 3,2 - 18 10 - - N 1022,9 30 0,4
27.04.2017 03:00:00 6,9 3,2 - 16 9 - - NNE 1023,0 35 0,0
27.04.2017 02:00:00 7,6 1,4 - 21 11 - - N 1023,1 50 0,0
27.04.2017 01:00:00 6,4 1,0 - 21 11 - - NNW 1023,5 50 0,0
27.04.2017 00:00:00 7,4 1,2 - 21 11 - - N 1023,3 50 0,0
26.04.2017 23:00:00 7,4 0,7 - 21 11 - - N 1023,3 50 0,0
26.04.2017 22:00:00 7,5 -0,1 - 28 15 - - N 1023,4 50 0,0
26.04.2017 21:00:00 7,2 -0,3 - 22 12 - - N 1022,9 50 0,0
26.04.2017 20:00:00 7,7 -0,4 - 22 12 - - N 1022,7 45 0,0
26.04.2017 19:00:00 8,0 0,3 - 18 10 - - N 1022,6 30 0,0
26.04.2017 18:00:00 9,2 1,7 - 18 10 - - N 1022,5 10 0,0
26.04.2017 17:00:00 8,5 1,3 - 24 13 - - NNE 1022,5 10 0,0
26.04.2017 16:00:00 8,2 2,1 - 22 12 - - NNE 1022,7 10 0,0
26.04.2017 15:00:00 7,2 0,9 - 29 16 - - N 1022,6 10 0,0
26.04.2017 14:00:00 8,6 3,2 - 13 7 - - ENE 1022,4 10 0,0
26.04.2017 13:00:00 8,3 5,2 - 24 13 - - ENE 1022,3 10 0,4
26.04.2017 12:00:00 8,8 3,4 - 21 11 - - ENE 1022,1 10 0,0
26.04.2017 11:00:00 8,5 2,8 - 24 13 - - NNE 1021,6 10 0,0
26.04.2017 10:00:00 8,7 3,5 12,0 28 15 - - NNE 1021,3 10 0,0
26.04.2017 09:00:00 7,8 3,1 - 24 13 - - NNE 1021,1 10 0,0
26.04.2017 08:00:00 5,7 2,0 - 29 16 - - NNE 1021,0 10 0,6
26.04.2017 07:00:00 7,0 0,2 - 24 13 - - N 1020,2 50 0,0
26.04.2017 06:00:00 7,1 3,0 - 24 13 - - N 1019,7 50 0,0
26.04.2017 05:00:00 6,9 3,5 - 26 14 - - N 1019,5 29 0,0
26.04.2017 04:00:00 6,9 2,4 - 21 11 - - NNE 1019,3 45 0,0
26.04.2017 03:00:00 5,9 2,9 - 21 11 - - NE 1019,5 50 0,0
26.04.2017 02:00:00 6,4 2,8 - 31 17 55 30 ENE 1019,7 35 2,6
26.04.2017 01:00:00 7,6 1,4 - 29 16 46 25 N 1019,6 16 0,0
26.04.2017 00:00:00 7,0 1,7 - 16 9 - - NNE 1019,7 40 0,0
25.04.2017 23:00:00 7,0 0,3 - 28 15 - - N 1019,8 50 0,0
25.04.2017 22:00:00 6,0 0,9 - 18 10 - - NNW 1019,7 50 0,0
25.04.2017 21:00:00 5,9 0,5 - 26 14 57 31 N 1019,4 50 0,2
25.04.2017 20:00:00 8,4 1,6 - 24 13 - - N 1018,9 40 0,0
25.04.2017 19:00:00 8,7 0,4 - 29 16 46 25 N 1018,7 30 0,0
25.04.2017 18:00:00 9,7 1,5 - 35 19 52 28 N 1018,6 10 0,0
25.04.2017 17:00:00 9,2 1,7 - 35 19 54 29 N 1018,8 10 0,0
25.04.2017 16:00:00 7,3 3,1 - 29 16 63 34 N 1019,2 10 0,2
25.04.2017 15:00:00 9,0 2,2 - 37 20 55 30 N 1019,4 10 0,0
25.04.2017 14:00:00 9,2 2,7 - 35 19 59 32 N 1019,1 10 0,0
25.04.2017 13:00:00 9,0 1,4 - 41 22 52 28 N 1019,1 10 0,0
25.04.2017 12:00:00 8,5 2,7 - 35 19 52 28 NNE 1019,2 10 0,0
25.04.2017 11:00:00 7,8 -0,1 - 31 17 52 28 N 1019,0 10 0,0
25.04.2017 10:00:00 7,8 0,6 13,4 31 17 50 27 N 1018,8 10 0,0
25.04.2017 09:00:00 8,4 1,5 - 35 19 48 26 N 1018,7 10 0,0
25.04.2017 08:00:00 7,3 0,5 - 29 16 - - N 1018,6 29 0,0
25.04.2017 07:00:00 6,8 -0,8 - 28 15 46 25 N 1018,4 50 0,0
25.04.2017 06:00:00 7,1 0,0 - 31 17 48 26 NNE 1018,2 45 0,0
25.04.2017 05:00:00 7,5 0,7 - 31 17 - - NNE 1018,0 45 0,0
25.04.2017 04:00:00 7,8 0,0 - 29 16 46 25 NNE 1017,8 40 0,0
25.04.2017 03:00:00 8,1 1,7 - 31 17 48 26 NNE 1017,8 50 0,0
25.04.2017 02:00:00 8,3 2,8 - 35 19 50 27 NE 1017,5 29 0,0
25.04.2017 01:00:00 8,7 4,6 - 35 19 50 27 NE 1017,4 27 0,0
25.04.2017 00:00:00 9,3 7,0 - 29 16 - - NNE 1016,9 30 0,2
24.04.2017 23:00:00 10,0 7,4 - 26 14 - - NE 1016,7 45 0,0
24.04.2017 22:00:00 11,1 8,4 - 15 8 - - NNW 1016,8 50 0,0
24.04.2017 21:00:00 10,9 7,8 - 15 8 - - NW 1016,9 50 0,0
24.04.2017 20:00:00 11,4 7,7 - 18 10 - - NNW 1016,9 45 0,0
24.04.2017 19:00:00 12,3 7,6 - 18 10 - - NNW 1017,2 25 0,0
24.04.2017 18:00:00 12,2 8,0 - 15 8 - - NNW 1017,3 10 0,0
24.04.2017 17:00:00 13,2 9,1 - 18 10 - - NNW 1017,7 45 0,0
24.04.2017 16:00:00 12,8 8,5 - 16 9 - - NNW 1018,2 10 0,0
24.04.2017 15:00:00 14,1 10,5 - 15 8 - - WNW 1018,7 10 0,0
24.04.2017 14:00:00 13,4 8,7 - 11 6 - - NNW 1019,2 35 0,0
24.04.2017 13:00:00 13,7 8,2 - 9 5 - - SSE 1019,5 10 0,0
24.04.2017 12:00:00 14,3 8,9 - 9 5 - - N 1019,9 10 0,0
24.04.2017 11:00:00 13,4 8,0 - 5 3 - - - 1020,1 10 0,0
24.04.2017 10:00:00 12,9 8,8 13,4 4 2 - - S 1020,1 10 0,0
24.04.2017 09:00:00 12,3 9,6 - 2 1 - - - 1020,3 10 0,0
24.04.2017 08:00:00 10,7 9,2 - 2 1 - - S 1020,6 10 0,0
24.04.2017 07:00:00 9,3 8,8 - 0 0 - - N 1020,8 24 0,0
24.04.2017 06:00:00 9,1 8,5 - 8 4 - - N 1020,9 19 0,0
24.04.2017 05:00:00 9,4 8,6 - 5 3 - - N 1021,4 35 0,0
24.04.2017 04:00:00 9,6 8,6 - 4 2 - - ENE 1021,7 22 0,0
24.04.2017 03:00:00 10,3 9,1 - 4 2 - - ESE 1022,2 35 0,0
24.04.2017 02:00:00 10,4 9,2 - 8 4 - - E 1022,8 29 0,0
24.04.2017 01:00:00 10,0 9,1 - 11 6 - - E 1023,3 30 0,0
24.04.2017 00:00:00 10,4 9,9 - 13 7 - - ENE 1023,7 12 0,0
23.04.2017 23:00:00 10,5 9,7 - 11 6 - - ENE 1023,9 15 0,0
23.04.2017 22:00:00 10,2 9,2 - 9 5 - - NE 1024,3 20 0,0
23.04.2017 21:00:00 10,7 8,8 - 9 5 - - ENE 1024,3 30 0,0
23.04.2017 20:00:00 11,8 8,9 - 9 5 - - ENE 1024,4 30 0,0
23.04.2017 19:00:00 12,6 9,2 - 8 4 - - ESE 1024,7 26 0,0
23.04.2017 18:00:00 13,2 9,5 - 8 4 - - SSE 1025,0 27 0,0
23.04.2017 17:00:00 14,1 10,2 - 9 5 - - SSE 1025,4 30 0,0
23.04.2017 16:00:00 14,2 10,3 - 11 6 - - SSE 1025,7 27 0,0
23.04.2017 15:00:00 13,7 9,8 - 11 6 - - SSE 1026,2 35 0,0
23.04.2017 14:00:00 13,4 10,2 - 13 7 - - SE 1026,5 23 0,0
23.04.2017 13:00:00 12,8 10,5 - 13 7 - - ESE 1026,8 19 0,0
23.04.2017 12:00:00 13,0 10,7 - 15 8 - - ESE 1027,1 14 0,0
23.04.2017 11:00:00 12,8 10,4 - 15 8 - - ESE 1027,1 35 0,0
23.04.2017 10:00:00 12,5 10,0 13,0 13 7 - - ESE 1027,1 50 0,0
23.04.2017 09:00:00 11,9 8,9 - 15 8 - - E 1027,2 23 0,0
23.04.2017 08:00:00 11,3 8,4 - 13 7 - - E 1027,1 35 0,0
23.04.2017 07:00:00 10,3 9,1 - 13 7 - - ENE 1026,8 29 0,0
23.04.2017 06:00:00 9,7 8,3 - 13 7 - - NE 1026,8 35 0,0
23.04.2017 05:00:00 9,5 7,8 - 15 8 - - NE 1027,1 50 0,0
23.04.2017 04:00:00 9,4 7,6 - 16 9 - - NE 1027,3 45 0,0
23.04.2017 03:00:00 9,7 7,7 - 16 9 - - NE 1027,7 35 0,0
23.04.2017 02:00:00 9,9 7,9 - 18 10 - - NE 1028,1 45 0,0
23.04.2017 01:00:00 9,9 7,7 - 21 11 - - NE 1028,5 45 0,0
23.04.2017 00:00:00 10,0 7,8 - 21 11 - - NE 1028,6 50 0,0
22.04.2017 23:00:00 10,0 7,8 - 18 10 - - NNE 1028,9 45 0,0
22.04.2017 22:00:00 10,1 7,9 - 16 9 - - NNE 1028,9 40 0,0
22.04.2017 21:00:00 10,1 7,9 - 21 11 - - NNE 1028,7 45 0,0
22.04.2017 20:00:00 10,9 7,9 - 21 11 - - NNE 1028,6 45 0,0
22.04.2017 19:00:00 11,4 7,9 - 24 13 - - NNE 1028,9 40 0,0
22.04.2017 18:00:00 12,0 8,6 - 22 12 - - NNE 1029,1 10 0,0
22.04.2017 17:00:00 12,3 8,1 - 26 14 - - NE 1029,2 10 0,0
22.04.2017 16:00:00 12,8 9,0 - 26 14 - - NE 1029,6 35 0,0
22.04.2017 15:00:00 12,8 8,8 - 21 11 - - NE 1029,8 45 0,0
22.04.2017 14:00:00 13,7 9,7 - 22 12 - - NE 1030,3 30 0,0
22.04.2017 13:00:00 13,8 9,7 - 21 11 - - NNE 1030,5 23 0,0
22.04.2017 12:00:00 13,4 10,5 - 18 10 - - NE 1030,9 10 0,0
22.04.2017 11:00:00 12,7 10,1 - 15 8 - - NE 1031,1 10 0,0
22.04.2017 10:00:00 12,2 9,5 13,2 15 8 - - NE 1031,1 10 0,0
22.04.2017 09:00:00 11,9 9,5 - 11 6 - - NE 1031,1 10 0,0
22.04.2017 08:00:00 11,3 9,2 - 13 7 - - NE 1031,1 10 0,0
22.04.2017 07:00:00 10,7 9,2 - 13 7 - - NNE 1030,8 30 0,0
22.04.2017 06:00:00 10,1 8,6 - 15 8 - - NNE 1030,6 45 0,0
22.04.2017 05:00:00 9,8 8,0 - 13 7 - - NE 1030,6 45 0,0
22.04.2017 04:00:00 10,3 7,5 - 16 9 - - NE 1030,9 50 0,0
22.04.2017 03:00:00 10,4 7,8 - 15 8 - - NE 1031,2 50 0,0
22.04.2017 02:00:00 10,1 8,4 - 13 7 - - NE 1031,7 40 0,0
22.04.2017 01:00:00 10,2 8,1 - 16 9 - - NE 1031,9 40 0,0
22.04.2017 00:00:00 10,3 8,1 - 15 8 - - NNE 1032,0 40 0,0
21.04.2017 23:00:00 10,4 8,5 - 16 9 - - NNE 1032,1 30 0,0
21.04.2017 22:00:00 10,6 9,1 - 15 8 - - N 1032,2 35 0,0
21.04.2017 21:00:00 11,0 9,1 - 16 9 - - N 1032,0 30 0,0
21.04.2017 20:00:00 11,8 9,1 - 16 9 - - N 1032,1 35 0,0
21.04.2017 19:00:00 12,8 8,4 - 18 10 - - N 1032,0 35 0,0
21.04.2017 18:00:00 13,3 8,1 - 18 10 - - N 1032,1 10 0,0
21.04.2017 17:00:00 13,4 8,6 - 22 12 - - N 1032,4 10 0,0
21.04.2017 16:00:00 13,8 8,3 - 18 10 - - NNE 1032,8 10 0,0
21.04.2017 15:00:00 14,0 9,8 - 18 10 - - NNE 1033,2 10 0,0
21.04.2017 14:00:00 14,1 8,4 - 13 7 - - E 1033,5 10 0,0
21.04.2017 13:00:00 13,8 8,8 - 11 6 - - ENE 1033,8 10 0,0
21.04.2017 12:00:00 13,3 7,8 - 11 6 - - E 1034,4 10 0,0
21.04.2017 11:00:00 12,9 8,3 - 13 7 - - ENE 1034,4 10 0,0
21.04.2017 10:00:00 12,4 8,9 12,9 13 7 - - ENE 1034,4 10 0,0
21.04.2017 09:00:00 11,9 10,2 - 13 7 - - ENE 1034,3 10 0,0
21.04.2017 08:00:00 11,1 10,5 - 11 6 - - ENE 1034,2 10 0,0
21.04.2017 07:00:00 10,0 9,4 - 11 6 - - ENE 1034,0 22 0,0
21.04.2017 06:00:00 9,6 8,9 - 13 7 - - ENE 1033,9 22 0,0
21.04.2017 05:00:00 9,2 8,8 - 11 6 - - NE 1034,0 21 0,0
21.04.2017 04:00:00 9,4 8,9 - 11 6 - - NNE 1034,1 9 0,0

tt = temperature
td = dewpoint
tt -20cm = temperature -20cm
ff = wind speed
fx = gusts
dd = wind direction
ppp = reduced air pressure
vv = visibility
rr = precipitation

Next stations